Weather in Chursya

Russia / Kirov Oblast     60°01′10″N   48°36′52″E
temp.,
°C
wind,
m/s
gust,
m/s
humid.,
%
clouds,
%
prec.,
mm/h
press.,
hPa
HPBL,
m
18 april, sun
sun1800:00+2nw210855 0.0 1026205
03:00+1n3109275 0.0 1027324
06:00+2ne4985100 0.1 1028691
09:00+2ne57513 0.1 10301071
12:00+4ene57445 0.0 10321520
15:00+5ene464239 0.0 10321730
18:00+3ene48525 0.0 1033663
21:00−2ene28755 0.0 1035174
19 april, mon
mon1900:00−3ene28775 0.0 1036203
03:00−3e27775 0.0 1037193
06:00−1e37645 0.0 1037290
09:00+3e35425 0.0 10381266
12:00+5e34363 0.0 10371531
15:00+6e23365 0.0 10361600
18:00+4e22530 0.0 103529
21:00−1ese22670 0.0 103611
20 april, tue
tue2000:00−2sse12690 0.0 103712
03:00−2sse11680 0.0 103710
06:000s12580 0.0 103799
09:00+5se11390 0.0 1036785
12:00+8se22340 0.0 10341242
15:00+9sse22330 0.0 10331339
18:00+7sse22490 0.0 103117
21:00+2sse22650 0.0 103218
21 april, wed
wed2100:000sse23710 0.0 103152
03:00−1se25730 0.0 103184
06:00+2se3116227 0.0 1029337
09:00+7se51039100 0.0 1028969
12:00+10se61236100 0.0 10251304
15:00+10se61440100 0.0 10221476
18:00+8sse61545100 0.0 10211483
21:00+7sse71650100 0.0 10201304
22 april, thu
thu2200:00+3sse71591100 0.0 1019978
03:00+3sse61496100 0.2 1018850
06:00+3s51396100 0.1 1018776
09:00+3s51296100 0.2 1019715
12:00+5s51080100 0.1 10201081
15:00+7s51071100 0.1 10211085
18:00+7s5117397 0.0 10211133
21:00+7s5118080 0.0 1022766